Change the Weather History Date:

Tuesday, July 9, 2013

  Actual Average (KCKC) Record (KCKC)
Temperature  
Mean Temperature 52 °F -  
Max Temperature 62 °F 71 °F 84 °F (2001)
Min Temperature 46 °F 50 °F 37 °F (1997)
Degree Days  
Heating Degree Days 12    
Growing Degree Days 2 (Base 50)    
Moisture  
Dew Point 48 °F    
Average Humidity 95    
Maximum Humidity 100    
Minimum Humidity 87    
Precipitation  
Precipitation 0.31 in - - ()
Sea Level Pressure  
Sea Level Pressure 29.87 in    
Wind  
Wind Speed 2 mph (SW)    
Max Wind Speed 6 mph    
Max Gust Speed -    
Averages and records for this station are not official NWS values.
T = Trace of Precipitation, MM = Missing Value Source: NWS Daily Summary

Daily Weather History Graph

Daily Weather History Graph

Search for Another Location

Airport or City:

Trip Planner

Search our weather history database for the weather conditions in past years. The results will help you decide how hot, cold, wet, or windy it might be!

Date:

Astronomy

Jul. 09, 2013 Rise Set
Actual Time 5:13 AM CDT 8:59 PM CDT
Civil Twilight 4:33 AM CDT 9:39 PM CDT
Nautical Twilight 3:39 AM CDT 10:33 PM CDT
Astronomical Twilight 2:20 AM CDT 11:50 PM CDT
Moon 6:47 AM CDT (7/9) 9:24 PM CDT (7/9)
Length of Visible Light 17h 05m
Length of Day
15h 46m
New Moon, 2% of the Moon is Illuminated
Jul 9
New Moon
Jul 15
First Quarter
Jul 22
Full
Jul 29
Last Quarter
Aug 6
New

Hourly Weather History & Observations

Time (CDT) Temp. Windchill Dew Point Humidity Pressure Visibility Wind Dir Wind Speed Gust Speed Precip Events Conditions
12:56 AM 48.0 °F - 46.0 °F 93% 30.01 in - Calm Calm - N/A   Unknown
1:56 AM 50.0 °F - 48.0 °F 93% 29.99 in - Calm Calm - N/A   Unknown
2:56 AM 46.9 °F - 46.0 °F 97% 29.97 in - Calm Calm - N/A   Unknown
3:56 AM 46.0 °F - 46.0 °F 100% 29.97 in - Calm Calm - N/A   Unknown
4:56 AM 46.0 °F 44.8 °F 45.0 °F 96% 29.98 in - WSW 3.5 mph - N/A   Unknown
5:56 AM 51.1 °F - 50.0 °F 96% 29.96 in - Calm Calm - N/A   Unknown
6:56 AM 46.9 °F - 46.0 °F 97% 29.96 in - SSW 3.5 mph - N/A   Unknown
7:56 AM 48.9 °F - 48.0 °F 97% 29.93 in - Calm Calm - N/A   Unknown
8:56 AM 48.0 °F - 46.9 °F 96% 29.91 in - Calm Calm - N/A   Unknown
9:56 AM 48.0 °F - 46.9 °F 96% 29.89 in - ENE 4.6 mph - N/A   Unknown
10:56 AM 48.9 °F - 46.9 °F 93% 29.89 in - ENE 3.5 mph - N/A   Unknown
11:56 AM 48.0 °F - 46.9 °F 96% 29.88 in - ENE 3.5 mph - N/A   Unknown
12:56 PM 48.9 °F - 46.9 °F 93% 29.86 in - ENE 4.6 mph - N/A   Unknown
1:56 PM 48.9 °F - 46.9 °F 93% 29.84 in - Calm Calm - N/A   Unknown
2:56 PM 50.0 °F - 48.9 °F 96% 29.81 in - ENE 5.8 mph - 0.26 in   Unknown
3:56 PM 55.0 °F - 53.1 °F 93% 29.79 in - NE 3.5 mph - N/A   Unknown
4:56 PM 48.9 °F - 48.0 °F 97% 29.79 in - WSW 4.6 mph - N/A   Unknown
5:56 PM 52.0 °F - 51.1 °F 97% 29.78 in - Calm Calm - N/A   Unknown
6:56 PM 48.9 °F - 48.0 °F 97% 29.78 in - SSW 3.5 mph - 0.02 in   Unknown
7:56 PM 48.0 °F - 46.9 °F 96% 29.78 in - WSW 3.5 mph - N/A   Unknown
8:56 PM 46.9 °F - 46.0 °F 97% 29.77 in - West 3.5 mph - N/A   Unknown
9:56 PM 50.0 °F - 48.9 °F 96% 29.78 in - West 4.6 mph - 0.03 in   Unknown
10:56 PM 59.0 °F - 57.0 °F 93% 29.75 in - Variable 3.5 mph - N/A   Unknown
11:56 PM 59.0 °F - 55.0 °F 87% 29.76 in - Calm Calm - N/A   Unknown